Location: Newark
(25.4800°N, 85.7200°E)
Time: 05:55:53
(UTC+00:00)

Explorer 11/Cluster Stage 4 - Pass Details

Date: 26 August 2019
Orbit: 467 x 1260 km, 28.8° (Epoch: 21 September)

Event Time Altitude Azimuth Distance (km) Brightness Sun altitude
Rises 11:13:38 0° 265° (W) 3,946 11.8 19.1°
Reaches altitude 10° 11:19:46 10° 227° (SW) 2,750 10.1 17.7°
Maximum altitude 11:20:44 10° 219° (SW) 2,684 9.9 17.5°
Drops below altitude 10° 11:21:41 10° 210° (SSW) 2,664 9.7 17.3°
Sets 11:27:00 0° 170° (S) 3,339 9.7 16.1°
